Time,TemperatureF,DewpointF,PressureIn,WindDirection,WindDirectionDegrees,WindSpeedMPH,WindSpeedGustMPH,Humidity,HourlyPrecipIn,Conditions,Clouds,dailyrainin,SolarRadiationWatts/m^2,SoftwareType,DateUTC
2013-01-28 00:01:00,38.0,37.0,-100.00,SW,218,4.0,8.0,96,0.02,,,0.31,1.000000,,2013-01-28 08:01:00,
2013-01-28 00:32:00,38.0,37.0,-100.00,SSW,212,4.0,10.0,96,0.00,,,0.31,1.000000,,2013-01-28 08:32:00,
2013-01-28 00:42:00,38.0,37.0,-100.00,SSW,212,4.0,10.0,96,0.00,,,0.31,1.000000,,2013-01-28 08:42:00,
2013-01-28 00:52:00,38.0,37.0,-100.00,SSW,212,4.0,10.0,96,0.00,,,0.31,1.000000,,2013-01-28 08:52:00,
2013-01-28 01:01:00,38.0,37.0,-100.00,SSW,212,4.0,10.0,96,0.00,,,0.31,1.000000,,2013-01-28 09:01:00,
2013-01-28 01:32:00,38.0,37.0,-100.00,WSW,246,4.0,10.0,97,0.01,,,0.32,1.000000,,2013-01-28 09:32:00,
2013-01-28 01:42:00,38.0,37.0,-100.00,WSW,246,4.0,10.0,97,0.01,,,0.32,1.000000,,2013-01-28 09:42:00,
2013-01-28 01:52:00,38.0,37.0,-100.00,WSW,246,4.0,10.0,97,0.01,,,0.32,1.000000,,2013-01-28 09:52:00,
2013-01-28 02:01:00,38.0,37.0,-100.00,WSW,246,4.0,10.0,97,0.01,,,0.32,1.000000,,2013-01-28 10:01:00,
2013-01-28 02:32:00,39.0,38.0,-100.00,SW,231,6.0,15.0,96,0.01,,,0.32,1.000000,,2013-01-28 10:32:00,
2013-01-28 02:42:00,39.0,38.0,-100.00,SW,231,6.0,15.0,96,0.01,,,0.32,1.000000,,2013-01-28 10:42:00,
2013-01-28 02:52:00,39.0,38.0,-100.00,SW,231,6.0,15.0,96,0.01,,,0.32,1.000000,,2013-01-28 10:52:00,
2013-01-28 03:01:00,39.0,38.0,-100.00,SW,231,6.0,15.0,96,0.01,,,0.32,1.000000,,2013-01-28 11:01:00,
2013-01-28 03:32:00,39.0,38.0,-100.00,WSW,250,6.0,15.0,96,0.00,,,0.32,1.000000,,2013-01-28 11:32:00,
2013-01-28 03:42:00,39.0,38.0,-100.00,WSW,250,6.0,15.0,96,0.00,,,0.32,1.000000,,2013-01-28 11:42:00,
2013-01-28 03:52:00,39.0,38.0,-100.00,WSW,250,6.0,15.0,96,0.00,,,0.32,1.000000,,2013-01-28 11:52:00,
2013-01-28 04:03:00,39.0,38.0,-100.00,WSW,250,6.0,15.0,96,0.00,,,0.32,1.000000,,2013-01-28 12:03:00,
2013-01-28 04:33:00,40.0,38.0,-100.00,SW,229,7.0,15.0,94,0.02,,,0.33,1.000000,,2013-01-28 12:33:00,
2013-01-28 04:42:00,40.0,38.0,-100.00,SW,229,7.0,15.0,94,0.02,,,0.33,1.000000,,2013-01-28 12:42:00,
2013-01-28 04:52:00,40.0,38.0,-100.00,SW,229,7.0,15.0,94,0.02,,,0.33,1.000000,,2013-01-28 12:52:00,
2013-01-28 05:02:00,40.0,38.0,-100.00,SW,229,7.0,15.0,94,0.02,,,0.33,1.000000,,2013-01-28 13:02:00,
2013-01-28 05:33:00,39.0,38.0,-100.00,WSW,242,5.0,12.0,96,0.02,,,0.34,1.000000,,2013-01-28 13:33:00,
2013-01-28 05:42:00,39.0,38.0,-100.00,WSW,242,5.0,12.0,96,0.02,,,0.34,1.000000,,2013-01-28 13:42:00,
2013-01-28 05:52:00,39.0,38.0,-100.00,WSW,242,5.0,12.0,96,0.02,,,0.34,1.000000,,2013-01-28 13:52:00,
2013-01-28 06:02:00,39.0,38.0,-100.00,WSW,242,5.0,12.0,96,0.02,,,0.34,1.000000,,2013-01-28 14:02:00,
2013-01-28 06:33:00,39.0,37.0,-100.00,SW,229,6.0,15.0,94,0.02,,,0.36,1.000000,,2013-01-28 14:33:00,
2013-01-28 06:43:00,39.0,37.0,-100.00,SW,229,6.0,15.0,94,0.02,,,0.36,1.000000,,2013-01-28 14:43:00,
2013-01-28 06:53:00,39.0,37.0,-100.00,SW,229,6.0,15.0,94,0.02,,,0.36,1.000000,,2013-01-28 14:53:00,
2013-01-28 07:02:00,39.0,37.0,-100.00,SW,229,6.0,15.0,94,0.02,,,0.36,1.000000,,2013-01-28 15:02:00,
2013-01-28 07:33:00,39.0,38.0,-100.00,WSW,242,6.0,19.0,95,0.02,,,0.38,1.000000,,2013-01-28 15:33:00,
2013-01-28 07:43:00,39.0,38.0,-100.00,WSW,242,6.0,19.0,95,0.02,,,0.38,1.000000,,2013-01-28 15:43:00,
2013-01-28 07:53:00,39.0,38.0,-100.00,WSW,242,6.0,19.0,95,0.02,,,0.38,1.000000,,2013-01-28 15:53:00,
2013-01-28 08:03:00,39.0,38.0,-100.00,WSW,242,6.0,19.0,95,0.02,,,0.38,1.000000,,2013-01-28 16:03:00,
2013-01-28 08:33:00,39.0,38.0,-100.00,WSW,251,7.0,16.0,96,0.02,,,0.39,3.000000,,2013-01-28 16:33:00,
2013-01-28 08:43:00,39.0,38.0,-100.00,WSW,251,7.0,16.0,96,0.02,,,0.39,3.000000,,2013-01-28 16:43:00,
2013-01-28 08:53:00,39.0,38.0,-100.00,WSW,251,7.0,16.0,96,0.02,,,0.39,3.000000,,2013-01-28 16:53:00,
2013-01-28 09:01:00,39.0,38.0,-100.00,WSW,251,7.0,16.0,96,0.02,,,0.39,3.000000,,2013-01-28 17:01:00,
2013-01-28 09:33:00,39.0,38.0,-100.00,WSW,252,7.0,15.0,95,0.03,,,0.42,28.000000,,2013-01-28 17:33:00,
2013-01-28 09:42:00,39.0,38.0,-100.00,WSW,252,7.0,15.0,95,0.03,,,0.42,28.000000,,2013-01-28 17:42:00,
2013-01-28 09:52:00,39.0,38.0,-100.00,WSW,252,7.0,15.0,95,0.03,,,0.42,28.000000,,2013-01-28 17:52:00,
2013-01-28 10:02:00,39.0,38.0,-100.00,WSW,252,7.0,15.0,95,0.03,,,0.42,28.000000,,2013-01-28 18:02:00,
2013-01-28 10:33:00,40.0,38.0,-100.00,WSW,243,8.0,16.0,94,0.02,,,-99.99,61.000000,,2013-01-28 18:33:00,
2013-01-28 10:42:00,40.0,38.0,-100.00,WSW,243,8.0,16.0,94,0.02,,,-99.99,61.000000,,2013-01-28 18:42:00,
2013-01-28 10:52:00,40.0,38.0,-100.00,WSW,243,8.0,16.0,94,0.02,,,-99.99,61.000000,,2013-01-28 18:52:00,
2013-01-28 11:01:00,40.0,38.0,-100.00,WSW,243,8.0,16.0,94,0.02,,,-99.99,61.000000,,2013-01-28 19:01:00,
2013-01-28 11:33:00,40.0,38.0,-100.00,WSW,242,8.0,17.0,93,0.03,,,0.46,80.000000,,2013-01-28 19:33:00,
2013-01-28 11:42:00,40.0,38.0,-100.00,WSW,242,8.0,17.0,93,0.03,,,0.46,80.000000,,2013-01-28 19:42:00,
2013-01-28 11:52:00,40.0,38.0,-100.00,WSW,242,8.0,17.0,93,0.03,,,0.46,80.000000,,2013-01-28 19:52:00,
2013-01-28 12:02:00,40.0,38.0,-100.00,WSW,242,8.0,17.0,93,0.03,,,0.46,80.000000,,2013-01-28 20:02:00,
2013-01-28 12:33:00,41.0,39.0,-100.00,WSW,254,6.0,19.0,94,0.04,,,0.50,135.000000,,2013-01-28 20:33:00,
2013-01-28 12:43:00,41.0,39.0,-100.00,WSW,254,6.0,19.0,94,0.04,,,0.50,135.000000,,2013-01-28 20:43:00,
2013-01-28 12:52:00,41.0,39.0,-100.00,WSW,254,6.0,19.0,94,0.04,,,0.50,135.000000,,2013-01-28 20:52:00,
2013-01-28 13:02:00,41.0,39.0,-100.00,WSW,254,6.0,19.0,94,0.04,,,0.50,135.000000,,2013-01-28 21:02:00,
2013-01-28 13:33:00,41.0,40.0,-100.00,WSW,258,6.0,15.0,96,0.09,,,0.59,90.000000,,2013-01-28 21:33:00,
2013-01-28 13:43:00,41.0,40.0,-100.00,WSW,258,6.0,15.0,96,0.09,,,0.59,90.000000,,2013-01-28 21:43:00,
2013-01-28 13:53:00,41.0,40.0,-100.00,WSW,258,6.0,15.0,96,0.09,,,0.59,90.000000,,2013-01-28 21:53:00,
2013-01-28 14:01:00,41.0,40.0,-100.00,WSW,258,6.0,15.0,96,0.09,,,0.59,90.000000,,2013-01-28 22:01:00,
2013-01-28 14:33:00,41.0,40.0,-100.00,WSW,238,6.0,15.0,96,0.09,,,-99.99,54.000000,,2013-01-28 22:33:00,
2013-01-28 14:42:00,41.0,40.0,-100.00,WSW,238,6.0,15.0,96,0.09,,,-99.99,54.000000,,2013-01-28 22:42:00,
2013-01-28 14:52:00,41.0,40.0,-100.00,WSW,238,6.0,15.0,96,0.09,,,-99.99,54.000000,,2013-01-28 22:52:00,
2013-01-28 15:01:00,41.0,40.0,-100.00,WSW,238,6.0,15.0,96,0.09,,,-99.99,54.000000,,2013-01-28 23:01:00,
2013-01-28 15:33:00,41.0,40.0,-100.00,SW,232,7.0,16.0,96,0.10,,,0.74,43.000000,,2013-01-28 23:33:00,
2013-01-28 15:42:00,41.0,40.0,-100.00,SW,232,7.0,16.0,96,0.10,,,0.74,43.000000,,2013-01-28 23:42:00,
2013-01-28 15:53:00,41.0,40.0,-100.00,SW,232,7.0,16.0,96,0.10,,,0.74,43.000000,,2013-01-28 23:53:00,
2013-01-28 16:02:00,41.0,40.0,-100.00,SW,232,7.0,16.0,96,0.10,,,0.74,43.000000,,2013-01-29 00:02:00,
2013-01-28 16:33:00,42.0,41.0,-100.00,WSW,254,8.0,17.0,95,0.09,,,0.79,23.000000,,2013-01-29 00:33:00,
2013-01-28 16:42:00,42.0,41.0,-100.00,WSW,254,8.0,17.0,95,0.09,,,0.79,23.000000,,2013-01-29 00:42:00,
2013-01-28 16:52:00,42.0,41.0,-100.00,WSW,254,8.0,17.0,95,0.09,,,0.79,23.000000,,2013-01-29 00:52:00,
2013-01-28 17:01:00,42.0,41.0,-100.00,WSW,254,8.0,17.0,95,0.09,,,0.79,23.000000,,2013-01-29 01:01:00,
2013-01-28 17:32:00,42.0,41.0,-100.00,WSW,249,7.0,19.0,96,0.09,,,0.83,6.000000,,2013-01-29 01:32:00,
2013-01-28 17:42:00,42.0,41.0,-100.00,WSW,249,7.0,19.0,96,0.09,,,0.83,6.000000,,2013-01-29 01:42:00,
2013-01-28 17:52:00,42.0,41.0,-100.00,WSW,249,7.0,19.0,96,0.09,,,0.83,6.000000,,2013-01-29 01:52:00,
2013-01-28 18:01:00,42.0,41.0,-100.00,WSW,249,7.0,19.0,96,0.09,,,0.83,6.000000,,2013-01-29 02:01:00,
2013-01-28 18:33:00,42.0,41.0,-100.00,WSW,252,7.0,18.0,97,0.09,,,0.89,1.000000,,2013-01-29 02:33:00,
2013-01-28 18:42:00,42.0,41.0,-100.00,WSW,252,7.0,18.0,97,0.09,,,0.89,1.000000,,2013-01-29 02:42:00,
2013-01-28 18:53:00,42.0,41.0,-100.00,WSW,252,7.0,18.0,97,0.09,,,0.89,1.000000,,2013-01-29 02:53:00,
2013-01-28 19:02:00,42.0,41.0,-100.00,WSW,252,7.0,18.0,97,0.09,,,0.89,1.000000,,2013-01-29 03:02:00,
2013-01-28 19:32:00,42.0,41.0,-100.00,WSW,258,8.0,20.0,95,0.12,,,0.97,1.000000,,2013-01-29 03:32:00,
2013-01-28 19:42:00,42.0,41.0,-100.00,WSW,258,8.0,20.0,95,0.12,,,0.97,1.000000,,2013-01-29 03:42:00,
2013-01-28 19:53:00,42.0,41.0,-100.00,WSW,258,8.0,20.0,95,0.12,,,0.97,1.000000,,2013-01-29 03:53:00,
2013-01-28 20:01:00,42.0,41.0,-100.00,WSW,258,8.0,20.0,95,0.12,,,0.97,1.000000,,2013-01-29 04:01:00,
2013-01-28 20:32:00,42.0,41.0,-100.00,WSW,253,7.0,20.0,96,0.11,,,1.07,1.000000,,2013-01-29 04:32:00,
2013-01-28 20:42:00,42.0,41.0,-100.00,WSW,253,7.0,20.0,96,0.11,,,1.07,1.000000,,2013-01-29 04:42:00,
2013-01-28 20:52:00,42.0,41.0,-100.00,WSW,253,7.0,20.0,96,0.11,,,1.07,1.000000,,2013-01-29 04:52:00,
2013-01-28 21:03:00,42.0,41.0,-100.00,WSW,253,7.0,20.0,96,0.11,,,1.07,1.000000,,2013-01-29 05:03:00,
2013-01-28 21:32:00,42.0,41.0,-100.00,WSW,251,7.0,18.0,96,0.08,,,1.13,1.000000,,2013-01-29 05:32:00,
2013-01-28 21:42:00,42.0,41.0,-100.00,WSW,251,7.0,18.0,96,0.08,,,1.13,1.000000,,2013-01-29 05:42:00,
2013-01-28 21:52:00,42.0,41.0,-100.00,WSW,251,7.0,18.0,96,0.08,,,1.13,1.000000,,2013-01-29 05:52:00,
2013-01-28 22:01:00,42.0,41.0,-100.00,WSW,251,7.0,18.0,96,0.08,,,1.13,1.000000,,2013-01-29 06:01:00,
2013-01-28 22:32:00,41.0,40.0,-100.00,WSW,242,10.0,22.0,95,0.08,,,1.20,1.000000,,2013-01-29 06:32:00,
2013-01-28 22:42:00,41.0,40.0,-100.00,WSW,242,10.0,22.0,95,0.08,,,1.20,1.000000,,2013-01-29 06:42:00,
2013-01-28 22:52:00,41.0,40.0,-100.00,WSW,242,10.0,22.0,95,0.08,,,1.20,1.000000,,2013-01-29 06:52:00,
2013-01-28 23:01:00,41.0,40.0,-100.00,WSW,242,10.0,22.0,95,0.08,,,1.20,1.000000,,2013-01-29 07:01:00,
2013-01-28 23:32:00,41.0,40.0,-100.00,WSW,242,7.0,22.0,96,0.07,,,1.25,1.000000,,2013-01-29 07:32:00,
2013-01-28 23:42:00,41.0,40.0,-100.00,WSW,242,7.0,22.0,96,0.07,,,1.25,1.000000,,2013-01-29 07:42:00,
2013-01-28 23:52:00,41.0,40.0,-100.00,WSW,242,7.0,22.0,96,0.07,,,1.25,1.000000,,2013-01-29 07:52:00,